カタログに戻る

OPS 0856 DEB

LostPO
NORAD 23841·DEBRIS·🇺🇸 United States

打ち上げ Aug 19, 1966 から Vandenberg Space Force Base

Loading…

次のパス (今後24時間)

TLE

古いSource: Space-Track

元期: Dec 18, 2025, 10:25 UTC

1 23841U 66077L   25352.43448157  .00000916  00000-0  65064-1 0  9995
2 23841  89.1224 156.0921 1764843 321.3076  27.3428  8.89084332175728

AllMySatでOPS 0856 DEBをリアルタイム追跡

Download on the App Store